sat.trackr.live / text

‹ back to catalog

STARLINK-1403

NORAD 45701 · 2020-035AW

PAYLOAD ACTIVE UNKNOWN

§ Identity

Operator
Country
US
Launch date
2020-06-04
Launch site
AFETR
Launch vehicle
Mass (kg)
RCS (m²)

Purposes: comms

External: N2YO · Heavens-Above · Gunter

§ Orbital elements

Epoch: 2026-09-12T06:25:15.236544Z

Period
93.39 min
Inclination
53.1502°
Eccentricity
0.0002840
Mean motion
15.41919233 rev/d
Perigee alt
438.5 km
Apogee alt
442.4 km
Semi-major
6,818.6 km
B*
9.4232e-4
RAAN
244.0954°
Arg perigee
57.7842°
Mean anomaly
302.3439°
Rev number
34,779

§ Raw data

STARLINK-14031 45701U 20035AW  26255.26753746  .00040485  00000+0  94232-3 0  99902 45701  53.1502 244.0954 0002840  57.7842 302.3439 15.41919233347792

JSON: /api/v1/satellites/45701 · /tle

For live sub-satellite position, see the globe view (requires WebGL).

§ Visibility from observer

Set your observer location to see the next 7 days of passes ≥ 10°. The values pass through the URL so the page stays shareable.

No JS? Fill the form by hand. The geolocation button needs JavaScript.